Simultaneous Nadir Overpasses (SNOs) Predictions

Prediction of SNOs between GOES-16 and METOP-C Satellite Orbit:

Table of predicted SNOs for the next 14.0 days since TLE Epoch: 8/30/2019
Index Date Time (GOES-16) GOES-16 Lat,Lon METOP-C Lat,Lon Distance(km) Time Diff (sec)
1 08/31/2019 02:44:22 -0.00, -75.18 -0.76, -78.59 389.21 80
2 09/01/2019 02:26:23 -0.00, -75.18 0.35, -73.60 180.28 80
3 09/02/2019 14:45:14 0.00, -75.20 0.64, -78.16 336.98 80
4 09/03/2019 14:21:54 0.00, -75.21 -0.47, -73.17 232.86 80
5 09/05/2019 02:43:36 -0.00, -75.21 -0.55, -77.77 291.30 80
6 09/06/2019 02:20:16 0.00, -75.22 0.56, -72.77 278.82 80
7 09/07/2019 14:41:47 -0.00, -75.24 0.48, -77.32 237.51 80
8 09/08/2019 14:18:27 -0.00, -75.25 -0.63, -72.33 332.92 80
9 09/10/2019 02:40:08 -0.00, -75.26 -0.39, -76.93 190.19 80
10 09/11/2019 02:16:49 0.00, -75.28 0.72, -71.93 380.68 80
11 09/12/2019 14:38:20 -0.00, -75.32 0.27, -76.50 134.38 80
12 09/13/2019 14:15:01 -0.00, -75.34 -0.84, -71.50 436.92 80




NCC Satellite Simultaneous Nadir Overpasses (SNOs) Prediction Service
